Regional Weather Roundup
Issued by NWS

Home | Current Version | Previous Version | Text Only | Print | Product List | Glossary On
Versions: 1 2 3 4 5 6 7 8 9 10 11 12 13 14 15 16 17 18 19 20 21 22 23 24 25 26 27 28 29 30 31 32 33 34 35 36 37 38 39 40 41 42 43 44 45 46 47 48 49 50
098
ASUS44 KBMX 040510
RWRAL

ALABAMA REGIONAL WEATHER ROUNDUP
NATIONAL WEATHER SERVICE BIRMINGHAM AL
1200 AM CDT WED MAY 04 2016

NOTE: "FAIR" INDICATES FEW OR NO CLOUDS BELOW 12,000 FEET
WITH NO SIGNIFICANT WEATHER AND/OR OBSTRUCTIONS TO VISIBILITY.

THE REMARK "TC" DENOTES TEMPERATURE IN DEGREES CELSIUS.

ALZ001>011-014-016>018-020-040600-
NORTH ALABAMA

CITY           SKY/WX    TMP DP  RH WIND       PRES   REMARKS
MUSCLE SHOALS  CLEAR     55  49  80 W3        29.95F
HUNTSVILLE     MOCLDY    58  49  72 NW7       29.92F
DECATUR        CLEAR     56  49  77 NW3       29.93F
HALEYVILLE     FAIR      51  49  92 CALM      29.96F
GADSDEN        CLOUDY    60  51  72 NW6       29.90S
$$

ALZ012-013-022-023-030>036-040>044-040600-
WEST CENTRAL ALABAMA

CITY           SKY/WX    TMP DP  RH WIND       PRES   REMARKS
TUSCALOOSA     MOCLDY    60  52  74 NW5       29.93S
$$

ALZ015-024>027-033>036-040>044-040600-
CENTRAL ALABAMA

CITY           SKY/WX    TMP DP  RH WIND       PRES   REMARKS
BIRMINGHAM     PTCLDY    58  52  80 N6        29.93S
MONTGOMERY     PTCLDY    63  56  78 NW7       29.88F
SHELBY CO ARPT CLEAR     60  51  72 NW3       29.91S
MAXWELL AFB    PTCLDY    62  57  84 NW5       29.87F
GREENVILLE     FAIR      63  58  83 CALM      29.88F
$$

ALZ019-021-028-029-037-038-045>048-040600-
EAST CENTRAL ALABAMA

CITY           SKY/WX    TMP DP  RH WIND       PRES   REMARKS
ANNISTON       CLOUDY    63  49  60 VRB6      29.89S
ALEXANDER CITY CLEAR     58  57  99 CALM      29.88F
AUBURN         MOCLDY    62  57  83 NW6       29.88F
$$

ALZ051>064-040600-
SOUTHWEST ALABAMA

CITY           SKY/WX    TMP DP  RH WIND       PRES   REMARKS
MOBILE         PTCLDY    64  62  93 NW6       29.92S
BROOKLEY FIELD CLEAR     67  64  90 NW8       29.91F
EVERGREEN      PTCLDY    62  60  93 CALM      29.90S
$$

ALZ049-050-065>069-040600-
SOUTHEAST ALABAMA

CITY           SKY/WX    TMP DP  RH WIND       PRES   REMARKS
DOTHAN         CLOUDY    69  63  81 NW9       29.89F
OZARK          CLOUDY    68  64  85 NW6       29.86F
TROY           PTCLDY    64  61  90 NW5       29.88F
EUFAULA        MOCLDY    69  60  73 VRB6      29.84F
$$




USA.gov is the U.S. government's official web portal to all federal, state and local government web resources and services.